Ashtabula, OH

5:44 AM EST on December 13, 2019 (GMT -0500)
Ashtabula County

Weather History for KHZY - September, 2019

Change the Weather History Date:

Sunday, September 29, 2019

  Actual Average (KGKJ) Record (KGKJ)
Temperature  
Mean Temperature 65 °F -  
Max Temperature 72 °F 65 °F 88 °F (1959)
Min Temperature 60 °F 44 °F 27 °F (1957)
Growing Degree Days 15 (Base 50)    
Moisture  
Dew Point 58 °F    
Average Humidity 83    
Maximum Humidity 93    
Minimum Humidity 61    
Precipitation  
Precipitation 0.00 in - - ()
Sea Level Pressure  
Sea Level Pressure 30.27 in    
Wind  
Wind Speed 5 mph (ENE)    
Max Wind Speed 9 mph    
Max Gust Speed -    
Visibility 10 miles    
Events      
Averages and records for this station are not official NWS values.
T = Trace of Precipitation, MM = Missing Value Source: NWS Daily Summary

Daily Weather History Graph

Daily Weather History Graph

Search for Another Location

Airport or City:

Astronomy

Sep. 29, 2019 Rise Set
Actual Time 7:17 AM EDT 7:08 PM EDT
Civil Twilight 6:49 AM EDT 7:35 PM EDT
Nautical Twilight 6:17 AM EDT 8:08 PM EDT
Astronomical Twilight 5:44 AM EDT 8:40 PM EDT
Moon 8:06 AM EDT (9/29) 8:07 PM EDT (9/29)
Length of Visible Light 12h 46m
Length of Day
11h 50m
New Moon, 1% of the Moon is Illuminated
Sep 29
New Moon
Oct 5
First Quarter
Oct 13
Full
Oct 21
Last Quarter
Oct 27
New

Hourly Weather History & Observations

Time (EDT) Temp. Dew Point Humidity Pressure Visibility Wind Dir Wind Speed Gust Speed Precip Events Conditions
12:53 AM 64.0 °F 61.0 °F 90% 30.25 in 10.0 mi NNE 3.5 mph - N/A   Overcast
1:04 AM 64.0 °F 61.0 °F 90% 30.26 in 10.0 mi Variable 4.6 mph - N/A   Overcast
1:53 AM 64.0 °F 61.0 °F 90% 30.25 in 10.0 mi NNE 3.5 mph - N/A   Overcast
2:53 AM 63.0 °F 60.1 °F 90% 30.25 in 10.0 mi ENE 5.8 mph - N/A   Overcast
3:53 AM 63.0 °F 59.0 °F 87% 30.25 in 10.0 mi East 3.5 mph - N/A   Overcast
4:53 AM 62.1 °F 57.9 °F 86% 30.27 in 10.0 mi Variable 3.5 mph - N/A   Overcast
5:53 AM 61.0 °F 57.9 °F 90% 30.27 in 10.0 mi ENE 5.8 mph - N/A   Overcast
6:09 AM 61.0 °F 57.9 °F 90% 30.28 in 10.0 mi ENE 5.8 mph - N/A   Overcast
6:44 AM 61.0 °F 55.9 °F 83% 30.30 in 10.0 mi ENE 4.6 mph - N/A   Overcast
6:53 AM 61.0 °F 55.0 °F 81% 30.29 in 10.0 mi ENE 5.8 mph - N/A   Overcast
7:53 AM 60.1 °F 55.9 °F 86% 30.32 in 10.0 mi East 4.6 mph - N/A   Overcast
8:53 AM 63.0 °F 57.0 °F 81% 30.32 in 10.0 mi East 8.1 mph - N/A   Scattered Clouds
9:53 AM 64.9 °F 55.0 °F 70% 30.33 in 10.0 mi East 9.2 mph - N/A   Clear
10:53 AM 68.0 °F 55.0 °F 63% 30.33 in 10.0 mi East 8.1 mph - N/A   Clear
11:53 AM 68.0 °F 54.0 °F 61% 30.33 in 10.0 mi East 6.9 mph - N/A   Clear
12:53 PM 70.0 °F 55.9 °F 61% 30.30 in 10.0 mi East 8.1 mph - N/A   Clear
1:53 PM 70.0 °F 55.9 °F 61% 30.29 in 10.0 mi East 5.8 mph - N/A   Partly Cloudy
2:53 PM 66.0 °F 59.0 °F 78% 30.29 in 10.0 mi NNE 6.9 mph - N/A   Partly Cloudy
3:53 PM 63.0 °F 60.1 °F 90% 30.30 in 10.0 mi Variable 3.5 mph - 0.00 in   Overcast
4:53 PM 63.0 °F 59.0 °F 87% 30.28 in 10.0 mi ENE 5.8 mph - 0.00 in   Clear
5:53 PM 63.0 °F 59.0 °F 87% 30.25 in 10.0 mi ENE 4.6 mph - N/A   Partly Cloudy
6:53 PM 61.0 °F 57.9 °F 90% 30.25 in 10.0 mi ENE 3.5 mph - N/A   Mostly Cloudy
7:53 PM 60.1 °F 57.0 °F 90% 30.25 in 10.0 mi East 3.5 mph - N/A   Mostly Cloudy
8:53 PM 60.1 °F 57.9 °F 93% 30.23 in 10.0 mi ENE 4.6 mph - N/A   Clear
9:53 PM 60.1 °F 57.9 °F 93% 30.24 in 10.0 mi Calm Calm - N/A   Mostly Cloudy
10:53 PM 60.1 °F 57.9 °F 93% 30.22 in 10.0 mi Calm Calm - N/A   Overcast
11:53 PM 60.1 °F 57.9 °F 93% 30.22 in 10.0 mi Calm Calm - N/A   Overcast